Location: Demmingen
(48.6757°N, 10.4375°E)
Time: 20:37:25
(UTC+00:00)

SL-16 R/B - Pass Details

Date: 14 August 2024
Orbit: 842 x 845 km, 71.0° (Epoch: 10 September)

Event Time Altitude Azimuth Distance (km) Brightness Sun altitude
Exits shadow 23:59:25 31° 270° (W) 1,456 3.3 -26.5°
Maximum altitude 00:01:12 38° 309° (NW) 1,266 3.3 -26.5°
Drops below altitude 10° 00:06:30 10° 17° (NNE) 2,476 5.6 -26.3°
Sets 00:09:08 0° 26° (NNE) 3,415 6.6 -26.2°
